Probability
0 0 0 3 3 6 6 6 6 3 3 3 3 0 0 0 0 0 0 0 0 3 0 0 0 0 0 0 0 0 0 0 0 0 0 0 0 0 0 0 0 0 0
0 0 0 0 3 3 6 6 3 3 3 3 0 0 0 0 0 0 0 0 0 0 0 0 0 0 0 0 0 0 0 0 0 0 0 0 0 0 0 0 0 0 0
0 0 0 0 0 3 3 3 3 3 3 3 0 0 0 0 0 0 0 0 0 0 0 0 0 0 0 0 0 0 0 0 0 0 0 0 0 0 0 0 0 0 0
0 0 0 0 0 3 3 3 3 3 3 0 0 0 0 0 0 0 0 0 0 0 0 0 0 0 0 0 0 0 0 0 0 0 0 0 0 0 0 0 0 0 0
0 0 0 0 0 0 3 3 3 3 0 0 0 0 0 0 0 0 0 0 0 0 0 0 0 0 0 0 0 0 0 0 0 0 0 0 0 0 0 0 0 0 0
0 0 0 0 0 0 0 3 3 0 0 0 0 0 0 0 0 0 0 0 0 0 0 0 0 0 0 0 0 0 0 0 0 0 0 0 0 0 0 0 0 0 0
0 0 0 0 0 0 0 0 0 0 0 0 0 0 0 0 0 0 0 0 0 0 0 0 0 0 0 0 0 0 0 0 0 0 0 0 0 0 0 0 0 0 0
0 0 0 0 0 0 0 0 0 0 0 0 0 0 0 0 0 0 0 0 0 0 0 0 0 0 0 0 0 0 0 0 0 0 0 0 0 0 0 0 0 0 0
0 0 0 0 0 0 0 0 0 0 0 0 0 0 0 0 0 0 0 0 0 0 0 0 0 0 0 0 0 0 0 0 0 0 0 0 0 0 0 0 0 0 0
0 0 0 0 0 0 0 0 0 0 0 0 0 0 0 0 0 0 0 0 0 0 0 0 0 0 0 0 0 0 0 0 0 0 0 0 0 0 0 0 0 0 0
0 0 0 0 0 0 0 0 0 0 0 0 0 0 0 0 0 0 0 0 0 0 0 0 0 0 0 0 0 0 0 0 0 0 0 0 0 0 0 0 0 0 0
0 0 0 0 0 0 0 0 0 0 0 0 0 0 0 0 0 0 0 0 0 0 0 0 0 0 0 0 0 0 0 0 0 0 0 0 0 0 0 0 0 0 0
0 0 0 0 0 0 0 0 0 0 0 0 0 0 0 0 0 0 0 0 0 0 0 0 0 0 0 0 0 0 0 0 0 0 0 0 0 0 0 0 0 0 0
0 0 0 0 0 0 0 0 0 0 0 0 0 0 0 0 0 0 0 0 0 0 0 0 0 0 0 0 0 0 0 0 0 0 0 0 0 0 0 0 0 0 0
0 0 0 0 0 0 0 0 0 0 0 0 0 0 0 0 0 0 0 0 0 0 0 0 0 0 0 0 0 0 0 0 0 0 0 0 0 0 0 0 0 0 0
0 0 0 0 0 0 0 0 0 0 0 0 0 0 0 0 0 0 0 0 0 0 0 0 0 0 0 0 0 0 0 0 0 0 0 0 0 0 0 0 0 0 0
0 0 0 0 0 0 0 0 0 0 0 0 0 0 0 0 0 0 0 0 0 0 0 0 0 0 0 0 0 0 0 0 0 0 0 0 0 0 0 0 0 0 0
0 0 0 0 0 0 0 0 0 0 0 0 0 0 0 0 0 0 0 0 0 0 0 0 0 0 0 0 0 0 0 0 0 0 0 0 0 0 0 0 0 0 0
0 0 0 0 0 0 0 0 0 0 0 0 0 0 0 0 0 0 0 0 0 0 0 0 0 0 0 0 0 0 0 0 0 0 0 0 0 0 0 0 0 0 0
0 0 0 0 0 0 0 0 0 0 0 0 0 0 0 0 0 0 0 0 0 0 0 0 0 0 0 0 0 0 0 0 0 0 0 0 0 0 0 0 0 0 0
0 0 0 0 0 0 0 0 0 0 0 0 0 0 0 0 0 0 0 0 0 0 0 0 0 0 0 0 0 0 0 0 0 0 0 0 0 0 0 0 0 0 0
0 0 0 0 0 0 0 0 0 0 0 0 0 0 0 0 0 0 0 0 0 0 0 0 0 0 0 0 0 0 0 0 0 0 0 0 0 0 0 0 0 0 0
0 0 0 0 0 0 0 0 0 0 0 0 0 0 0 0 0 0 0 0 0 0 0 0 0 0 0 0 0 0 0 0 0 0 0 0 0 0 0 0 0 0 0
0 0 0 0 0 0 0 0 0 0 0 0 0 0 0 0 0 0 0 0 0 0 0 0 0 0 0 0 0 0 0 0 0 0 0 0 0 0 0 0 0 0 0
0 0 0 0 0 0 0 0 0 0 0 0 0 0 0 0 0 0 0 0 0 0 0 0 0 0 0 0 0 0 0 0 0 0 0 0 0 0 0 0 0 0 0
0 0 0 0 0 0 0 0 0 0 0 0 0 0 0 0 0 0 0 0 0 0 0 0 0 0 0 0 0 0 0 0 0 0 0 0 0 0 0 0 0 0 0
Height
5806 5808 5809 5811 5812 5814 5815 5816 5818 5819 5820 5821 5822 5823 5824 5824 5825 5826 5826 5826 5827 5827 5828 5828 5828 5828 5828 5827 5827 5826 5826 5825 5825 5824 5823 5823 5822 5821 5820 5819 5818 5817 5816
5799 5801 5802 5804 5805 5807 5808 5809 5811 5812 5813 5814 5815 5816 5817 5817 5818 5819 5820 5820 5821 5821 5821 5822 5822 5822 5822 5822 5821 5821 5820 5819 5819 5818 5818 5817 5816 5815 5814 5814 5813 5812 5810
5791 5793 5795 5796 5798 5799 5800 5801 5803 5804 5805 5807 5808 5809 5809 5810 5811 5812 5812 5813 5814 5814 5815 5815 5815 5815 5815 5815 5815 5814 5814 5813 5813 5812 5811 5810 5810 5809 5808 5807 5806 5805 5804
5783 5785 5787 5788 5790 5791 5792 5793 5795 5796 5797 5798 5800 5801 5801 5802 5803 5804 5805 5806 5806 5807 5808 5808 5808 5808 5808 5808 5808 5808 5807 5807 5806 5805 5804 5804 5803 5802 5801 5800 5799 5798 5797
5774 5776 5778 5780 5781 5782 5784 5785 5786 5787 5789 5790 5791 5792 5793 5794 5795 5796 5797 5798 5798 5799 5800 5801 5801 5801 5801 5801 5801 5800 5800 5799 5799 5798 5797 5796 5796 5795 5794 5793 5792 5791 5790
5765 5767 5769 5771 5772 5774 5775 5776 5777 5778 5779 5780 5781 5783 5784 5785 5786 5787 5788 5789 5790 5791 5792 5792 5793 5793 5793 5793 5793 5792 5792 5791 5791 5790 5790 5789 5788 5787 5786 5785 5784 5783 5782
5756 5758 5760 5761 5763 5764 5765 5766 5767 5768 5769 5770 5772 5773 5774 5776 5777 5778 5779 5780 5781 5782 5782 5783 5784 5784 5784 5784 5784 5784 5784 5783 5783 5782 5781 5780 5779 5778 5777 5777 5775 5774 5773
5747 5749 5751 5752 5753 5755 5756 5756 5757 5758 5759 5760 5762 5763 5765 5767 5768 5769 5769 5770 5772 5772 5773 5774 5774 5775 5775 5775 5775 5775 5775 5774 5774 5773 5772 5771 5770 5769 5768 5767 5766 5765 5764
5737 5739 5741 5742 5744 5745 5745 5746 5747 5748 5749 5750 5751 5753 5755 5757 5758 5759 5760 5761 5762 5763 5763 5764 5764 5765 5765 5765 5765 5765 5765 5765 5764 5763 5762 5761 5760 5759 5758 5757 5756 5754 5753
5728 5730 5731 5732 5734 5734 5735 5736 5737 5738 5739 5740 5741 5742 5744 5746 5748 5749 5750 5751 5751 5752 5753 5754 5754 5755 5755 5755 5755 5755 5755 5754 5753 5753 5752 5751 5750 5749 5747 5746 5744 5743 5741
5719 5720 5722 5723 5724 5724 5725 5726 5726 5727 5728 5729 5731 5732 5733 5735 5736 5738 5740 5741 5742 5742 5743 5743 5744 5744 5744 5744 5744 5744 5744 5743 5742 5741 5741 5739 5738 5737 5736 5734 5732 5731 5729
5710 5711 5712 5713 5714 5715 5715 5716 5716 5717 5717 5718 5720 5721 5723 5724 5726 5727 5729 5730 5731 5732 5732 5732 5733 5733 5733 5733 5733 5732 5732 5731 5731 5730 5729 5728 5726 5725 5723 5722 5720 5718 5716
5701 5702 5703 5704 5705 5705 5705 5706 5706 5707 5707 5708 5709 5710 5712 5713 5715 5716 5717 5718 5720 5721 5721 5721 5721 5721 5721 5721 5721 5720 5720 5719 5718 5717 5716 5715 5714 5712 5710 5708 5706 5704 5702
5691 5693 5694 5694 5695 5695 5696 5696 5697 5697 5697 5698 5698 5699 5700 5702 5703 5704 5706 5707 5707 5709 5709 5710 5709 5709 5709 5709 5708 5708 5707 5706 5705 5704 5703 5701 5700 5698 5696 5694 5692 5690 5687
5682 5683 5684 5685 5685 5685 5686 5686 5686 5686 5687 5687 5688 5688 5689 5690 5691 5693 5694 5694 5695 5696 5697 5698 5697 5697 5696 5696 5695 5694 5694 5693 5692 5691 5689 5688 5686 5684 5681 5679 5677 5674 5671
5672 5673 5674 5675 5675 5675 5675 5676 5676 5676 5676 5677 5677 5677 5678 5679 5680 5680 5681 5682 5682 5683 5684 5685 5685 5684 5683 5683 5682 5681 5680 5679 5678 5676 5675 5673 5671 5668 5666 5663 5661 5658 5655
5662 5663 5664 5664 5665 5665 5665 5665 5666 5666 5666 5666 5667 5667 5667 5668 5668 5668 5669 5669 5670 5670 5670 5671 5671 5671 5670 5669 5669 5667 5666 5665 5663 5662 5660 5657 5655 5653 5650 5647 5644 5641 5638
5652 5653 5654 5654 5654 5655 5655 5655 5656 5655 5656 5656 5657 5657 5657 5656 5657 5657 5657 5657 5657 5657 5657 5658 5658 5658 5657 5656 5655 5653 5652 5650 5648 5646 5644 5642 5639 5636 5633 5630 5627 5623 5621
5642 5643 5643 5644 5644 5645 5645 5645 5646 5646 5646 5646 5646 5646 5646 5646 5646 5645 5645 5645 5645 5644 5644 5645 5645 5644 5644 5642 5641 5640 5638 5636 5634 5631 5629 5626 5623 5620 5617 5613 5610 5607 5605
5631 5632 5633 5634 5634 5634 5635 5635 5636 5636 5636 5636 5636 5636 5635 5635 5634 5634 5633 5633 5632 5632 5632 5632 5632 5631 5631 5629 5627 5626 5625 5622 5620 5617 5614 5611 5608 5604 5601 5598 5595 5592 5590
5621 5622 5623 5623 5624 5624 5625 5625 5625 5625 5625 5625 5625 5625 5624 5624 5623 5622 5621 5621 5621 5620 5620 5619 5619 5619 5618 5616 5614 5612 5611 5609 5607 5603 5600 5598 5593 5590 5587 5583 5580 5577 5574
5611 5612 5612 5613 5614 5614 5615 5615 5615 5615 5615 5615 5614 5614 5613 5612 5611 5611 5610 5610 5609 5609 5608 5607 5607 5606 5605 5603 5601 5599 5597 5596 5594 5591 5586 5584 5579 5576 5572 5569 5566 5563 5560
5601 5602 5602 5603 5604 5604 5605 5605 5605 5605 5604 5604 5604 5603 5603 5602 5601 5600 5600 5599 5599 5597 5597 5596 5595 5593 5592 5590 5588 5587 5584 5582 5580 5576 5572 5570 5566 5562 5559 5555 5552 5548 5546
5590 5591 5592 5593 5594 5594 5594 5595 5595 5595 5594 5594 5593 5593 5592 5591 5591 5590 5589 5589 5588 5587 5586 5584 5583 5581 5579 5577 5575 5574 5571 5569 5566 5562 5558 5556 5553 5549 5546 5542 5538 5535 5532
5580 5581 5582 5583 5583 5584 5584 5585 5585 5585 5584 5584 5583 5583 5582 5581 5580 5579 5579 5578 5577 5575 5574 5572 5571 5569 5567 5565 5562 5560 5558 5555 5553 5550 5545 5542 5540 5537 5534 5530 5526 5523 5520
5570 5571 5572 5573 5573 5574 5574 5574 5575 5575 5575 5574 5573 5572 5572 5571 5570 5569 5568 5567 5566 5565 5563 5562 5560 5558 5555 5553 5550 5547 5545 5542 5540 5537 5534 5531 5528 5525 5523 5520 5515 5512 5509
Wind_Speed
31 31 31 31 31 30 30 30 30 30 30 29 29 29 28 28 28 28 28 27 27 26 26 26 26 26 26 26 25 25 25 25 25 25 25 25 25 25 25 24 24 24 24
32 32 32 32 32 32 32 32 32 32 32 32 32 31 31 31 30 30 30 30 29 28 28 28 28 28 27 28 27 27 27 27 27 27 26 26 26 27 26 26 26 26 26
34 33 33 33 33 33 34 34 33 34 34 33 34 33 33 33 33 33 32 32 31 31 30 30 30 30 29 29 29 29 29 29 28 28 28 29 29 28 28 28 28 28 28
35 35 35 35 34 35 35 35 35 35 35 35 35 35 36 36 35 35 35 34 33 33 33 32 32 32 31 31 31 31 31 31 31 31 30 30 30 30 30 30 30 30 30
36 36 36 36 36 36 36 36 36 36 37 37 37 37 37 37 37 36 36 36 35 35 35 34 34 33 33 33 33 33 32 33 32 32 32 32 32 32 32 32 33 33 32
37 37 37 37 37 37 37 37 37 38 39 39 39 38 38 38 38 38 37 37 37 36 36 36 36 35 35 35 35 35 34 34 34 34 34 34 34 34 34 34 35 35 35
38 38 38 38 38 37 37 37 38 39 40 40 40 40 40 40 39 39 39 39 38 38 37 37 37 37 37 37 37 37 37 36 37 37 37 37 37 37 37 37 37 37 37
39 39 39 38 38 38 38 38 39 40 40 40 41 41 41 41 41 41 40 40 40 40 39 39 38 39 39 38 39 39 39 39 39 39 39 39 39 40 40 40 40 40 40
38 39 38 39 39 39 39 39 40 40 40 41 42 42 42 42 42 42 41 41 42 41 41 41 41 41 41 41 41 41 41 41 41 41 41 41 42 42 43 43 43 43 44
38 38 38 39 39 39 40 40 41 41 41 41 42 43 43 43 43 43 43 43 43 43 43 43 43 43 43 42 42 43 43 43 43 43 44 44 45 45 45 45 46 46 47
37 38 38 38 38 38 39 40 40 41 42 43 43 44 44 45 44 44 44 44 44 45 45 45 45 45 45 45 45 45 46 45 45 45 46 47 47 47 47 47 48 48 49
37 38 38 38 38 38 38 39 40 41 42 43 44 45 46 46 45 46 46 46 46 46 46 46 47 47 47 47 47 47 48 47 47 48 48 48 49 49 49 50 50 51 52
37 38 38 38 38 39 39 39 39 40 42 43 44 46 47 47 47 47 48 48 47 47 46 46 48 49 49 49 49 49 49 49 49 50 50 50 50 51 51 52 53 53 54
38 39 39 39 39 40 40 40 40 41 42 43 44 45 46 48 48 48 48 49 49 49 48 48 49 50 50 50 50 50 50 51 51 52 52 52 53 53 54 54 55 56 56
39 40 40 40 40 40 41 41 41 41 42 44 44 45 46 47 49 49 49 50 51 51 50 50 50 51 51 50 50 51 51 51 52 53 54 54 55 55 55 56 57 57 58
39 39 40 40 41 41 41 41 41 42 43 43 44 45 45 46 47 48 49 50 50 51 52 51 51 51 51 52 51 51 52 53 53 54 55 55 56 56 57 58 58 59 60
40 40 40 41 41 41 41 41 40 41 42 42 43 43 44 45 46 47 48 49 49 50 50 51 52 52 52 52 52 52 53 54 55 56 56 57 57 58 58 59 60 60 59
39 39 39 40 40 40 39 39 39 39 39 40 41 42 43 44 45 47 48 49 50 50 50 51 51 51 52 52 52 52 54 55 55 56 56 57 57 59 59 59 58 58 57
39 39 39 39 39 39 39 38 38 38 38 39 40 42 42 44 45 46 47 49 49 50 50 50 49 50 50 51 52 53 53 53 54 55 55 56 57 57 57 56 55 55 54
39 39 39 39 39 39 39 39 39 38 39 39 40 41 42 43 44 45 47 48 48 49 49 49 49 50 50 52 53 53 52 52 53 54 55 56 55 55 54 54 53 53 53
38 39 38 38 38 39 39 39 39 39 39 39 40 41 41 43 44 45 45 45 46 46 47 48 49 50 50 51 52 52 52 51 52 53 53 53 54 53 53 52 52 51 52
37 38 38 37 38 38 38 38 39 39 39 39 40 41 42 42 43 43 42 43 43 44 45 46 47 48 48 49 49 50 50 50 50 51 52 52 52 51 51 51 51 50 50
36 37 36 37 37 38 38 38 38 39 39 40 40 40 40 41 42 41 41 42 42 43 44 44 45 46 46 46 47 48 49 49 50 50 51 50 50 49 48 48 48 47 48
36 36 36 36 37 37 38 38 38 37 38 38 39 40 40 40 41 41 41 41 41 42 42 43 44 45 44 45 46 47 48 48 49 49 49 48 47 47 46 46 46 46 46
36 36 37 37 37 37 38 38 37 37 37 38 38 39 40 40 40 40 41 41 41 41 41 41 42 43 43 44 45 46 47 47 47 46 46 45 44 44 43 43 43 44 43
36 36 36 36 36 36 37 37 37 37 37 38 38 39 39 39 40 40 40 40 41 40 40 41 41 42 42 43 44 45 45 45 44 42 41 41 41 41 40 40 40 41 41
Wind_Direction
250 250 249 249 248 249 249 250 252 252 253 254 256 257 258 259 259 260 262 264 265 267 269 271 271 272 273 274 276 276 275 275 275 276 277 278 278 279 281 281 282 283 284
249 250 250 250 249 250 251 252 253 253 254 255 256 258 258 259 260 260 262 263 265 267 269 270 271 272 273 274 274 276 275 275 275 274 275 276 277 278 279 280 281 282 283
249 250 251 251 251 251 252 253 254 254 254 256 256 257 258 259 259 260 262 263 264 266 268 270 271 271 272 273 273 275 275 275 276 275 275 275 275 276 277 278 279 280 281
249 250 252 251 252 252 253 254 254 255 255 257 258 258 259 259 259 260 261 263 265 266 267 269 271 271 271 271 272 274 275 275 276 276 276 276 276 275 276 277 278 279 280
248 250 252 253 252 253 254 254 254 255 256 257 258 258 258 258 259 260 261 263 265 266 267 268 269 270 271 271 272 273 274 274 275 276 276 276 277 277 276 277 277 278 278
249 249 251 253 252 253 255 255 255 256 257 258 258 258 258 258 259 260 262 263 264 265 266 267 268 269 270 271 272 273 274 274 275 276 277 277 277 278 278 278 278 278 278
249 251 253 254 253 254 255 256 256 257 258 259 259 258 257 258 259 260 262 263 262 264 265 266 268 269 270 271 271 272 273 274 275 275 277 277 277 277 278 278 278 279 279
251 252 253 255 255 255 255 256 257 258 258 259 258 258 257 258 259 260 260 262 263 264 265 266 267 269 270 271 271 271 272 274 274 275 277 277 278 278 278 277 278 278 279
251 253 255 256 257 257 257 258 258 258 258 259 258 258 258 258 259 260 260 261 263 264 265 266 267 268 269 270 271 271 272 273 274 274 276 277 278 279 279 278 279 279 279
252 254 256 257 259 260 259 259 259 259 259 259 258 258 258 258 259 259 260 260 262 263 264 266 266 268 269 270 271 271 271 272 274 274 276 278 279 279 279 279 279 280 280
253 254 256 258 260 261 261 261 261 261 260 260 259 258 258 259 260 260 261 262 263 264 264 265 266 267 268 270 271 271 271 273 274 276 276 277 278 279 279 279 280 280 281
253 255 257 259 260 261 262 262 262 261 261 261 259 259 258 259 259 260 261 262 263 264 265 265 266 267 268 270 271 271 271 273 275 276 276 277 278 279 280 280 280 281 281
253 255 257 259 260 261 262 262 262 263 262 261 260 260 259 260 259 261 262 263 264 264 265 266 267 266 268 269 270 271 272 273 274 275 276 278 278 279 280 281 280 281 281
254 256 258 259 260 261 262 262 263 264 263 262 262 261 260 260 260 261 263 264 265 266 266 267 267 268 268 268 269 271 272 273 275 276 278 279 280 280 281 281 282 281 281
255 256 258 260 261 262 262 262 263 264 263 262 263 263 262 262 262 262 264 265 266 266 266 267 268 268 269 270 271 272 272 273 275 276 278 279 281 281 281 282 282 282 282
255 256 258 260 261 262 263 263 264 264 264 263 263 264 264 264 263 264 264 265 266 267 267 267 269 271 271 271 272 274 274 275 277 278 278 279 280 281 282 282 282 282 282
256 258 260 261 262 263 263 264 266 265 264 264 265 266 266 266 264 265 265 266 266 267 268 268 270 271 271 272 274 276 275 277 278 278 279 280 281 282 283 283 283 282 281
256 258 260 262 263 263 263 265 266 266 265 265 266 267 268 268 267 267 267 266 267 268 269 270 271 272 273 274 275 276 277 278 279 279 280 281 282 284 284 284 283 282 281
256 258 260 262 262 263 263 264 266 267 266 266 267 268 270 270 270 270 269 269 269 269 270 270 272 273 274 275 276 278 279 279 279 280 281 283 284 285 285 284 283 282 281
257 259 260 261 262 263 264 264 265 266 267 268 269 270 272 272 272 271 271 270 270 270 270 270 272 273 274 275 277 279 279 280 281 282 283 284 285 285 285 284 283 283 282
258 259 260 261 262 263 263 264 265 266 268 269 271 272 273 273 272 271 271 271 270 271 272 272 273 273 275 276 277 279 279 282 283 284 285 286 286 286 285 285 284 283 283
258 259 259 261 262 263 264 265 267 267 269 270 271 271 272 272 271 270 270 271 272 273 273 274 275 275 276 276 277 278 280 282 284 285 286 286 285 286 286 285 285 284 283
259 259 260 261 263 264 264 265 267 269 270 271 271 271 271 271 271 271 271 272 273 273 273 275 276 276 276 277 278 279 281 283 285 286 286 286 286 287 286 286 285 284 283
258 259 259 261 262 262 263 265 267 268 270 270 270 270 271 272 272 272 273 273 273 274 274 276 277 278 278 279 280 281 282 284 285 287 286 286 287 287 287 287 285 284 283
258 258 258 260 262 262 264 266 268 269 270 270 271 272 272 272 273 274 274 275 276 276 275 276 278 278 279 280 282 283 283 284 285 285 285 286 287 288 288 287 286 284 284
257 257 257 259 261 263 264 266 268 269 270 271 271 272 272 273 274 275 275 276 277 278 276 277 277 279 280 281 283 284 284 285 285 286 285 286 287 287 288 288 287 285 285